JST519 YSSY-YMML

Flight info

Callsign JST519
Flight time 1h 15m
Altitude 36000
Route MARUB7/34R WOL H65 LEECE Q29 ML
Aircraft A21N/M-SDE2E3FGHIRWXY/LB1

Departure

Time 2026-05-01 09:26
Airport Sydney Kingsford Smith International Airport (YSSY)

Arrival

Time 2026-05-01 10:42
Airport Melbourne Airport (YMML)
Time Latitude Longitude Altitude Speed Heading
2026-05-01 08:04 -33.93111 151.17714 36 ft 0 kts 190°
2026-05-01 08:56 -33.93106 151.17715 35 ft 4 kts 191°
2026-05-01 08:57 -33.93080 151.17724 35 ft 4 kts 205°
2026-05-01 08:57 -33.93059 151.17741 35 ft 4 kts 239°
2026-05-01 08:57 -33.93056 151.17761 35 ft 1 kts 295°
2026-05-01 09:05 -33.93052 151.17751 35 ft 4 kts 295°
2026-05-01 09:06 -33.93033 151.17705 35 ft 8 kts 297°
2026-05-01 09:06 -33.93010 151.17624 35 ft 12 kts 282°
2026-05-01 09:06 -33.93000 151.17560 36 ft 0 kts 280°
2026-05-01 09:06 -33.93000 151.17557 36 ft 2 kts 270°
2026-05-01 09:07 -33.93024 151.17544 36 ft 6 kts 197°
2026-05-01 09:07 -33.93070 151.17526 36 ft 8 kts 199°
2026-05-01 09:07 -33.93133 151.17527 35 ft 10 kts 173°
2026-05-01 09:07 -33.93211 151.17543 35 ft 12 kts 165°
2026-05-01 09:08 -33.93303 151.17570 35 ft 15 kts 168°
2026-05-01 09:08 -33.93408 151.17592 35 ft 16 kts 178°
2026-05-01 09:08 -33.93527 151.17596 35 ft 18 kts 168°
2026-05-01 09:08 -33.93653 151.17640 35 ft 20 kts 152°
2026-05-01 09:09 -33.93681 151.17658 35 ft 2 kts 157°
2026-05-01 09:09 -33.93713 151.17676 35 ft 8 kts 156°
2026-05-01 09:09 -33.93777 151.17694 35 ft 10 kts 168°
2026-05-01 09:09 -33.93846 151.17736 35 ft 13 kts 129°
2026-05-01 09:10 -33.93929 151.17784 35 ft 14 kts 166°
2026-05-01 09:10 -33.94033 151.17812 34 ft 16 kts 167°
2026-05-01 09:10 -33.94150 151.17843 35 ft 18 kts 167°
2026-05-01 09:10 -33.94245 151.17927 35 ft 20 kts 66°
2026-05-01 09:11 -33.94224 151.18010 35 ft 0 kts 76°
2026-05-01 09:11 -33.94221 151.18021 19 ft 4 kts 76°
2026-05-01 09:11 -33.94210 151.18077 35 ft 10 kts 76°
2026-05-01 09:12 -33.94181 151.18209 35 ft 21 kts 75°
2026-05-01 09:12 -33.94132 151.18346 35 ft 16 kts 17°
2026-05-01 09:12 -33.94093 151.18245 35 ft 20 kts 252°
2026-05-01 09:12 -33.94136 151.18072 35 ft 23 kts 254°
2026-05-01 09:13 -33.94185 151.17886 35 ft 25 kts 221°
2026-05-01 09:13 -33.94353 151.17896 35 ft 26 kts 168°
2026-05-01 09:13 -33.94484 151.17889 35 ft 13 kts 201°
2026-05-01 09:13 -33.94584 151.17899 35 ft 16 kts 168°
2026-05-01 09:14 -33.94705 151.17929 35 ft 19 kts 168°
2026-05-01 09:14 -33.94847 151.17966 35 ft 22 kts 167°
2026-05-01 09:14 -33.95008 151.18007 36 ft 25 kts 168°
2026-05-01 09:14 -33.95094 151.18133 36 ft 23 kts 76°
2026-05-01 09:15 -33.95069 151.18276 36 ft 6 kts 78°
2026-05-01 09:15 -33.95059 151.18333 36 ft 8 kts 78°
2026-05-01 09:15 -33.95046 151.18409 36 ft 10 kts 78°
2026-05-01 09:15 -33.95044 151.18421 36 ft 0 kts 78°
2026-05-01 09:17 -33.95043 151.18452 36 ft 7 kts 99°
2026-05-01 09:17 -33.95081 151.18513 36 ft 12 kts 145°
2026-05-01 09:17 -33.95261 151.18688 35 ft 19 kts 154°
2026-05-01 09:18 -33.95392 151.18737 35 ft 21 kts 168°
2026-05-01 09:18 -33.95695 151.18818 35 ft 24 kts 167°
2026-05-01 09:19 -33.96041 151.18906 35 ft 27 kts 167°
2026-05-01 09:19 -33.96229 151.18956 35 ft 28 kts 168°
2026-05-01 09:19 -33.96428 151.19006 35 ft 30 kts 167°
2026-05-01 09:20 -33.96858 151.19074 35 ft 33 kts 167°
2026-05-01 09:20 -33.97105 151.19145 36 ft 6 kts 145°
2026-05-01 09:21 -33.97117 151.19249 34 ft 0 kts 78°
2026-05-01 09:25 -33.97085 151.19344 31 ft 11 kts 40°
2026-05-01 09:26 -33.97001 151.19356 30 ft 14 kts 353°
2026-05-01 09:26 -33.96021 151.19106 34 ft 149 kts 348°
2026-05-01 09:26 -33.94935 151.18792 756 ft 158 kts 350°
2026-05-01 09:27 -33.93076 151.19433 2048 ft 154 kts 50°
2026-05-01 09:27 -33.92652 151.20669 2557 ft 171 kts 81°
2026-05-01 09:27 -33.92939 151.22123 3093 ft 190 kts 112°
2026-05-01 09:28 -33.93607 151.23585 3646 ft 207 kts 114°
2026-05-01 09:28 -33.93986 151.25288 4211 ft 218 kts 85°
2026-05-01 09:28 -33.93878 151.27186 4773 ft 239 kts 85°
2026-05-01 09:28 -33.93803 151.29268 5385 ft 257 kts 85°
2026-05-01 09:29 -33.93661 151.33687 7215 ft 269 kts 86°
2026-05-01 09:29 -33.93588 151.35952 8123 ft 273 kts 85°
2026-05-01 09:30 -33.93436 151.40597 9952 ft 282 kts 85°
2026-05-01 09:30 -33.93360 151.43017 10492 ft 301 kts 87°
2026-05-01 09:30 -33.95002 151.47986 11088 ft 355 kts 131°
2026-05-01 09:31 -33.97041 151.49824 11375 ft 379 kts 151°
2026-05-01 09:31 -33.99596 151.50817 11860 ft 394 kts 170°
2026-05-01 09:31 -34.05003 151.49753 13344 ft 404 kts 206°
2026-05-01 09:32 -34.07299 151.47790 14101 ft 408 kts 224°
2026-05-01 09:32 -34.10661 151.42238 15372 ft 415 kts 245°
2026-05-01 09:32 -34.11647 151.39008 16052 ft 417 kts 252°
2026-05-01 09:33 -34.12940 151.35867 16695 ft 422 kts 235°
2026-05-01 09:33 -34.14895 151.33208 17411 ft 424 kts 225°
2026-05-01 09:33 -34.19127 151.28117 18670 ft 434 kts 226°
2026-05-01 09:34 -34.21205 151.25449 19236 ft 437 kts 227°
2026-05-01 09:34 -34.23271 151.22732 19813 ft 440 kts 228°
2026-05-01 09:34 -34.27409 151.17230 20974 ft 445 kts 229°
2026-05-01 09:35 -34.29488 151.14454 21526 ft 448 kts 229°
2026-05-01 09:35 -34.33700 151.08836 22652 ft 453 kts 229°
2026-05-01 09:35 -34.35830 151.05992 23196 ft 457 kts 229°
2026-05-01 09:36 -34.37962 151.03139 23763 ft 459 kts 229°
2026-05-01 09:36 -34.40079 151.00298 24255 ft 461 kts 229°
2026-05-01 09:36 -34.42236 150.97405 24695 ft 464 kts 229°
2026-05-01 09:36 -34.44400 150.94500 25122 ft 466 kts 229°
2026-05-01 09:37 -34.46582 150.91571 25530 ft 469 kts 229°
2026-05-01 09:37 -34.50975 150.85664 26318 ft 474 kts 229°
2026-05-01 09:37 -34.53186 150.82688 26806 ft 474 kts 229°
2026-05-01 09:38 -34.57395 150.76560 27851 ft 471 kts 235°
2026-05-01 09:38 -34.59333 150.73357 28384 ft 470 kts 236°
2026-05-01 09:38 -34.61257 150.70152 28919 ft 469 kts 236°
2026-05-01 09:39 -34.65084 150.63757 29955 ft 467 kts 236°
2026-05-01 09:39 -34.66999 150.60562 30433 ft 467 kts 236°
2026-05-01 09:39 -34.68886 150.57416 30854 ft 465 kts 236°
2026-05-01 09:40 -34.70791 150.54243 31275 ft 464 kts 236°
2026-05-01 09:40 -34.74585 150.47927 32091 ft 461 kts 236°
2026-05-01 09:40 -34.76469 150.44779 32503 ft 459 kts 236°
2026-05-01 09:41 -34.78343 150.41648 32956 ft 456 kts 236°
2026-05-01 09:41 -34.82052 150.35432 33724 ft 453 kts 236°
2026-05-01 09:41 -34.83899 150.32334 34042 ft 452 kts 236°
2026-05-01 09:42 -34.85744 150.29240 34378 ft 451 kts 236°
2026-05-01 09:42 -34.87582 150.26155 34671 ft 450 kts 236°
2026-05-01 09:42 -34.91251 150.20008 35244 ft 447 kts 236°
2026-05-01 09:43 -34.94877 150.13892 35847 ft 442 kts 236°
2026-05-01 09:43 -34.96680 150.10858 36156 ft 440 kts 236°
2026-05-01 09:43 -34.98477 150.07841 36390 ft 440 kts 236°
2026-05-01 09:44 -35.03861 149.98762 36436 ft 440 kts 236°
2026-05-01 09:45 -35.07444 149.92695 36424 ft 440 kts 236°
2026-05-01 09:45 -35.12773 149.83649 36424 ft 438 kts 236°
2026-05-01 09:46 -35.16327 149.77598 36420 ft 438 kts 236°
2026-05-01 09:46 -35.19874 149.71536 36422 ft 438 kts 236°
2026-05-01 09:47 -35.23423 149.65478 36419 ft 438 kts 236°
2026-05-01 09:47 -35.26969 149.59420 36422 ft 438 kts 236°
2026-05-01 09:48 -35.29911 149.54374 36418 ft 438 kts 236°
2026-05-01 09:48 -35.33447 149.48312 36412 ft 438 kts 236°
2026-05-01 09:49 -35.36985 149.42242 36412 ft 437 kts 236°
2026-05-01 09:49 -35.40521 149.36162 36410 ft 437 kts 237°
2026-05-01 09:50 -35.44031 149.30116 36413 ft 438 kts 237°
2026-05-01 09:50 -35.47559 149.24011 36410 ft 439 kts 237°
2026-05-01 09:51 -35.51111 149.17867 36415 ft 439 kts 237°
2026-05-01 09:51 -35.54616 149.11797 36414 ft 439 kts 237°
2026-05-01 09:52 -35.58142 149.05671 36426 ft 439 kts 237°
2026-05-01 09:52 -35.61660 148.99543 36420 ft 438 kts 237°
2026-05-01 09:53 -35.65162 148.93421 36427 ft 438 kts 237°
2026-05-01 09:53 -35.68662 148.87292 36426 ft 438 kts 237°
2026-05-01 09:54 -35.72168 148.81159 36435 ft 438 kts 237°
2026-05-01 09:54 -35.75676 148.75017 36433 ft 439 kts 237°
2026-05-01 09:55 -35.79179 148.68866 36429 ft 438 kts 237°
2026-05-01 09:55 -35.82677 148.62724 36426 ft 438 kts 237°
2026-05-01 09:56 -35.86174 148.56580 36432 ft 438 kts 237°
2026-05-01 09:56 -35.89655 148.50413 36419 ft 438 kts 237°
2026-05-01 09:57 -35.93107 148.44280 36419 ft 437 kts 237°
2026-05-01 09:57 -35.96573 148.38115 36415 ft 437 kts 237°
2026-05-01 09:58 -36.00035 148.31956 36414 ft 437 kts 237°
2026-05-01 09:58 -36.03503 148.25772 36409 ft 438 kts 237°
2026-05-01 09:59 -36.06973 148.19581 36397 ft 438 kts 237°
2026-05-01 09:59 -36.10416 148.13411 36386 ft 435 kts 238°
2026-05-01 10:00 -36.13857 148.07245 36389 ft 435 kts 237°
2026-05-01 10:00 -36.17305 148.01078 36380 ft 435 kts 237°
2026-05-01 10:01 -36.20742 147.94913 36382 ft 435 kts 238°
2026-05-01 10:01 -36.24160 147.88795 36373 ft 432 kts 238°
2026-05-01 10:02 -36.27557 147.82671 36379 ft 432 kts 238°
2026-05-01 10:02 -36.30981 147.76526 36371 ft 433 kts 238°
2026-05-01 10:03 -36.34400 147.70363 36364 ft 433 kts 238°
2026-05-01 10:03 -36.37798 147.64200 36368 ft 433 kts 238°
2026-05-01 10:04 -36.41183 147.58063 36367 ft 431 kts 238°
2026-05-01 10:04 -36.44563 147.51902 36369 ft 432 kts 238°
2026-05-01 10:05 -36.47951 147.45737 36362 ft 432 kts 238°
2026-05-01 10:05 -36.51336 147.39558 36367 ft 432 kts 238°
2026-05-01 10:06 -36.54713 147.33387 36359 ft 431 kts 238°
2026-05-01 10:06 -36.58077 147.27227 36350 ft 431 kts 238°
2026-05-01 10:07 -36.61443 147.21051 36363 ft 431 kts 238°
2026-05-01 10:07 -36.64784 147.14911 36370 ft 431 kts 238°
2026-05-01 10:08 -36.69817 147.05631 36366 ft 431 kts 239°
2026-05-01 10:09 -36.73162 146.99442 36365 ft 431 kts 239°
2026-05-01 10:09 -36.76507 146.93240 36361 ft 431 kts 239°
2026-05-01 10:10 -36.79857 146.87041 36362 ft 430 kts 239°
2026-05-01 10:10 -36.84869 146.77719 36278 ft 427 kts 239°
2026-05-01 10:11 -36.86524 146.74638 35954 ft 429 kts 239°
2026-05-01 10:11 -36.88186 146.71529 35678 ft 431 kts 239°
2026-05-01 10:11 -36.89845 146.68419 35440 ft 431 kts 239°
2026-05-01 10:11 -36.91510 146.65298 35199 ft 431 kts 239°
2026-05-01 10:12 -36.93174 146.62180 34965 ft 431 kts 239°
2026-05-01 10:12 -36.94838 146.59069 34557 ft 429 kts 239°
2026-05-01 10:12 -36.98153 146.52897 33163 ft 427 kts 239°
2026-05-01 10:13 -36.99804 146.49815 32415 ft 427 kts 238°
2026-05-01 10:13 -37.01455 146.46723 31687 ft 427 kts 238°
2026-05-01 10:13 -37.03102 146.43637 30974 ft 427 kts 238°
2026-05-01 10:14 -37.06417 146.37420 29282 ft 430 kts 238°
2026-05-01 10:14 -37.08076 146.34292 28401 ft 434 kts 238°
2026-05-01 10:14 -37.09753 146.31125 27523 ft 438 kts 238°
2026-05-01 10:14 -37.11471 146.27875 26774 ft 450 kts 239°
2026-05-01 10:15 -37.13176 146.24658 26402 ft 436 kts 239°
2026-05-01 10:15 -37.14819 146.21552 26142 ft 420 kts 239°
2026-05-01 10:15 -37.16407 146.18541 25909 ft 406 kts 239°
2026-05-01 10:15 -37.17946 146.15614 25442 ft 399 kts 239°
2026-05-01 10:16 -37.19465 146.12721 24861 ft 397 kts 240°
2026-05-01 10:16 -37.20958 146.09869 24269 ft 395 kts 240°
2026-05-01 10:16 -37.23975 146.04126 23027 ft 391 kts 240°
2026-05-01 10:17 -37.25463 146.01297 22461 ft 386 kts 240°
2026-05-01 10:17 -37.28390 145.95707 21324 ft 379 kts 240°
2026-05-01 10:17 -37.29835 145.92954 20763 ft 376 kts 240°
2026-05-01 10:18 -37.32695 145.87507 19669 ft 370 kts 240°
2026-05-01 10:18 -37.34107 145.84815 19151 ft 367 kts 240°
2026-05-01 10:18 -37.35486 145.82183 18652 ft 364 kts 240°
2026-05-01 10:19 -37.36875 145.79532 18093 ft 361 kts 240°
2026-05-01 10:19 -37.38254 145.76909 17541 ft 358 kts 240°
2026-05-01 10:19 -37.39621 145.74302 17008 ft 355 kts 240°
2026-05-01 10:20 -37.42308 145.69147 15941 ft 349 kts 240°
2026-05-01 10:20 -37.43636 145.66605 15421 ft 347 kts 240°
2026-05-01 10:20 -37.44955 145.64074 14908 ft 344 kts 240°
2026-05-01 10:20 -37.46265 145.61562 14414 ft 348 kts 239°
2026-05-01 10:21 -37.47678 145.58859 14227 ft 389 kts 239°
2026-05-01 10:21 -37.50633 145.53233 13857 ft 370 kts 239°
2026-05-01 10:21 -37.52024 145.50581 13635 ft 355 kts 239°
2026-05-01 10:22 -37.54650 145.45561 12970 ft 335 kts 239°
2026-05-01 10:22 -37.57192 145.40691 11894 ft 330 kts 240°
2026-05-01 10:23 -37.58452 145.38274 11383 ft 328 kts 240°
2026-05-01 10:23 -37.60938 145.33504 10344 ft 323 kts 240°
2026-05-01 10:23 -37.62164 145.31150 9856 ft 319 kts 240°
2026-05-01 10:24 -37.64524 145.26619 9304 ft 299 kts 240°
2026-05-01 10:24 -37.66777 145.22290 8970 ft 294 kts 240°
2026-05-01 10:25 -37.68955 145.18105 8968 ft 271 kts 240°
2026-05-01 10:25 -37.71002 145.14165 8974 ft 269 kts 240°
2026-05-01 10:26 -37.72008 145.12203 8652 ft 265 kts 243°
2026-05-01 10:26 -37.72625 145.10066 8213 ft 257 kts 267°
2026-05-01 10:26 -37.72757 145.05609 7496 ft 250 kts 273°
2026-05-01 10:27 -37.72850 145.01274 6562 ft 252 kts 273°
2026-05-01 10:27 -37.72963 144.96813 5516 ft 250 kts 274°
2026-05-01 10:28 -37.73022 144.94670 5161 ft 233 kts 274°
2026-05-01 10:28 -37.73116 144.91062 4907 ft 187 kts 276°
2026-05-01 10:28 -37.73154 144.89475 4769 ft 175 kts 276°
2026-05-01 10:29 -37.73229 144.86536 4062 ft 164 kts 277°
2026-05-01 10:29 -37.73271 144.85069 3761 ft 169 kts 277°
2026-05-01 10:30 -37.72452 144.82727 3430 ft 143 kts 339°
2026-05-01 10:30 -37.70604 144.81880 3152 ft 142 kts 354°
2026-05-01 10:31 -37.68661 144.81617 2951 ft 138 kts 358°
2026-05-01 10:31 -37.66535 144.81349 3457 ft 167 kts 358°
2026-05-01 10:32 -37.64627 144.81137 3495 ft 165 kts 358°
2026-05-01 10:32 -37.63474 144.81010 3493 ft 167 kts 358°
2026-05-01 10:32 -37.61155 144.80772 3499 ft 166 kts 358°
2026-05-01 10:33 -37.59227 144.81962 3481 ft 174 kts 60°
2026-05-01 10:33 -37.59528 144.85144 3501 ft 194 kts 102°
2026-05-01 10:34 -37.59979 144.86751 3500 ft 194 kts 102°
2026-05-01 10:34 -37.60425 144.88336 3498 ft 194 kts 102°
2026-05-01 10:34 -37.60878 144.89941 3496 ft 194 kts 102°
2026-05-01 10:35 -37.61780 144.93156 3497 ft 194 kts 102°
2026-05-01 10:35 -37.62357 144.94703 3477 ft 202 kts 122°
2026-05-01 10:35 -37.63542 144.95727 3485 ft 214 kts 158°
2026-05-01 10:35 -37.65011 144.96021 3480 ft 213 kts 171°
2026-05-01 10:36 -37.67962 144.96368 2767 ft 213 kts 172°
2026-05-01 10:36 -37.69423 144.96523 2519 ft 206 kts 172°
2026-05-01 10:36 -37.70797 144.96645 2475 ft 191 kts 172°
2026-05-01 10:37 -37.72103 144.96751 2474 ft 185 kts 172°
2026-05-01 10:37 -37.74582 144.96203 2472 ft 186 kts 223°
2026-05-01 10:37 -37.75233 144.94857 2488 ft 179 kts 259°
2026-05-01 10:38 -37.75550 144.93340 2504 ft 179 kts 262°
2026-05-01 10:38 -37.75876 144.91902 2478 ft 163 kts 262°
2026-05-01 10:38 -37.76194 144.90552 2464 ft 158 kts 262°
2026-05-01 10:38 -37.76334 144.89242 2257 ft 149 kts 286°
2026-05-01 10:39 -37.75952 144.88079 1896 ft 139 kts 312°
2026-05-01 10:39 -37.75413 144.87101 1704 ft 135 kts 314°
2026-05-01 10:39 -37.74864 144.86166 1505 ft 133 kts 319°
2026-05-01 10:39 -37.74183 144.85426 1319 ft 127 kts 336°
2026-05-01 10:40 -37.73324 144.85061 1197 ft 134 kts 352°
2026-05-01 10:40 -37.72393 144.84855 1073 ft 136 kts 354°
2026-05-01 10:40 -37.71458 144.84685 920 ft 136 kts 355°
2026-05-01 10:40 -37.70527 144.84490 791 ft 135 kts 353°
2026-05-01 10:41 -37.69596 144.84297 586 ft 136 kts 354°
2026-05-01 10:41 -37.68664 144.84118 429 ft 135 kts 354°
2026-05-01 10:41 -37.67090 144.83823 389 ft 122 kts 349°
2026-05-01 10:42 -37.66621 144.83737 404 ft 36 kts
2026-05-01 10:42 -37.66543 144.83778 404 ft 12 kts 42°
2026-05-01 10:42 -37.66511 144.83883 409 ft 0 kts 93°
2026-05-01 10:43 -37.66511 144.83884 409 ft 1 kts 93°
2026-05-01 10:43 -37.66515 144.83904 409 ft 4 kts 119°
2026-05-01 10:44 -37.66540 144.83929 408 ft 5 kts 152°
2026-05-01 10:44 -37.66581 144.83944 406 ft 7 kts 172°
2026-05-01 10:44 -37.66636 144.83953 404 ft 9 kts 172°
2026-05-01 10:44 -37.66698 144.83978 401 ft 10 kts 143°
2026-05-01 10:45 -37.66718 144.84069 396 ft 12 kts 94°
2026-05-01 10:45 -37.66761 144.84167 398 ft 14 kts 144°
2026-05-01 10:45 -37.66857 144.84206 394 ft 8 kts 172°
2026-05-01 10:45 -37.66860 144.84207 392 ft 1 kts 173°
2026-05-01 10:46 -37.66879 144.84210 394 ft 4 kts 173°
2026-05-01 10:46 -37.66913 144.84214 394 ft 6 kts 173°
2026-05-01 10:46 -37.66957 144.84221 392 ft 7 kts 173°
2026-05-01 10:46 -37.66992 144.84228 391 ft 0 kts 171°
2026-05-01 10:47 -37.66993 144.84228 391 ft 0 kts 171°
2026-05-01 10:47 -37.66999 144.84229 391 ft 2 kts 168°
2026-05-01 10:48 -37.67005 144.84231 391 ft 2 kts 163°
2026-05-01 10:48 -37.67019 144.84239 391 ft 0 kts 149°
2026-05-01 10:48 -37.67026 144.84247 391 ft 2 kts 136°
2026-05-01 10:49 -37.67039 144.84275 391 ft 5 kts 105°
2026-05-01 10:49 -37.67010 144.84314 392 ft 9 kts 27°
2026-05-01 10:49 -37.66974 144.84350 393 ft 1 kts 43°
2026-05-01 10:49 -37.66959 144.84368 393 ft 5 kts 42°
2026-05-01 10:50 -37.66957 144.84370 391 ft 0 kts 42°
2026-05-01 10:50 -37.66956 144.84371 391 ft 0 kts 42°